QPF
0.07 0.08 0.09 0.08 0.09 0.08 0.07 0.08 0.05 0.02 0.01 0.00 0.00 0.00 0.00 0.00 0.00 0.00 0.00 0.00 0.00 0.00 0.00 0.00 0.00 0.00 0.00 0.00 0.00 0.00 0.00 0.00 0.00 0.00 0.00 0.00 0.00 0.00
0.00 0.01 0.03 0.04 0.05 0.05 0.03 0.03 0.03 0.01 0.01 0.00 0.00 0.00 0.00 0.00 0.00 0.00 0.00 0.00 0.00 0.00 0.00 0.00 0.00 0.00 0.00 0.00 0.00 0.00 0.00 0.00 0.00 0.00 0.00 0.00 0.00 0.00
0.00 0.00 0.01 0.01 0.00 0.00 0.00 0.00 0.01 0.00 0.00 0.00 0.00 0.00 0.00 0.00 0.00 0.00 0.00 0.00 0.00 0.00 0.00 0.00 0.00 0.00 0.00 0.00 0.00 0.00 0.00 0.00 0.00 0.00 0.00 0.00 0.00 0.00
0.00 0.00 0.00 0.00 0.00 0.00 0.00 0.00 0.00 0.00 0.00 0.00 0.00 0.00 0.00 0.00 0.00 0.00 0.00 0.00 0.00 0.00 0.00 0.00 0.00 0.00 0.00 0.00 0.00 0.00 0.00 0.00 0.00 0.00 0.00 0.00 0.00 0.00
0.00 0.00 0.00 0.00 0.00 0.00 0.00 0.00 0.00 0.00 0.00 0.00 0.00 0.00 0.00 0.00 0.00 0.00 0.00 0.00 0.00 0.00 0.00 0.00 0.00 0.00 0.00 0.00 0.00 0.00 0.00 0.00 0.00 0.00 0.00 0.00 0.00 0.00
0.00 0.00 0.00 0.00 0.00 0.00 0.00 0.00 0.00 0.00 0.00 0.00 0.00 0.00 0.00 0.00 0.00 0.00 0.00 0.00 0.00 0.00 0.00 0.00 0.00 0.00 0.00 0.00 0.00 0.00 0.00 0.00 0.00 0.00 0.00 0.00 0.00 0.00
0.00 0.00 0.00 0.00 0.00 0.00 0.00 0.00 0.00 0.00 0.00 0.00 0.00 0.00 0.00 0.00 0.00 0.00 0.00 0.00 0.00 0.00 0.00 0.00 0.00 0.00 0.00 0.00 0.00 0.00 0.00 0.00 0.00 0.00 0.00 0.00 0.00 0.00
0.00 0.00 0.00 0.00 0.00 0.00 0.00 0.00 0.00 0.00 0.00 0.00 0.00 0.00 0.00 0.00 0.00 0.00 0.00 0.00 0.00 0.00 0.00 0.00 0.00 0.00 0.00 0.00 0.00 0.00 0.00 0.00 0.00 0.00 0.00 0.00 0.00 0.00
0.00 0.00 0.00 0.00 0.00 0.00 0.00 0.00 0.00 0.00 0.00 0.00 0.00 0.00 0.00 0.00 0.00 0.00 0.00 0.00 0.00 0.00 0.00 0.00 0.00 0.00 0.00 0.00 0.00 0.00 0.00 0.00 0.00 0.00 0.00 0.00 0.00 0.00
0.00 0.00 0.00 0.00 0.00 0.00 0.00 0.00 0.00 0.00 0.00 0.00 0.00 0.00 0.00 0.00 0.00 0.00 0.00 0.00 0.00 0.00 0.00 0.00 0.00 0.00 0.00 0.00 0.00 0.00 0.00 0.00 0.00 0.00 0.00 0.00 0.00 0.00
0.00 0.00 0.00 0.00 0.00 0.00 0.00 0.00 0.00 0.00 0.00 0.00 0.00 0.00 0.00 0.00 0.00 0.00 0.00 0.00 0.00 0.00 0.00 0.00 0.00 0.00 0.00 0.00 0.00 0.00 0.00 0.00 0.00 0.00 0.00 0.00 0.00 0.00
0.00 0.00 0.00 0.00 0.00 0.00 0.00 0.00 0.00 0.00 0.00 0.00 0.00 0.00 0.00 0.00 0.00 0.00 0.00 0.00 0.00 0.00 0.00 0.00 0.00 0.00 0.00 0.00 0.00 0.00 0.00 0.00 0.00 0.00 0.00 0.00 0.00 0.00
0.00 0.00 0.00 0.00 0.00 0.00 0.00 0.00 0.00 0.00 0.00 0.00 0.00 0.00 0.00 0.00 0.00 0.00 0.00 0.00 0.00 0.00 0.00 0.00 0.00 0.00 0.00 0.00 0.00 0.00 0.00 0.00 0.00 0.00 0.00 0.00 0.00 0.00
0.00 0.00 0.00 0.00 0.00 0.00 0.00 0.00 0.00 0.00 0.00 0.00 0.00 0.00 0.00 0.00 0.00 0.00 0.00 0.00 0.00 0.00 0.00 0.00 0.00 0.00 0.00 0.00 0.00 0.00 0.00 0.00 0.00 0.00 0.00 0.00 0.00 0.00
0.00 0.00 0.00 0.00 0.00 0.00 0.00 0.00 0.00 0.00 0.00 0.00 0.00 0.00 0.00 0.00 0.00 0.00 0.00 0.00 0.00 0.00 0.00 0.00 0.00 0.00 0.00 0.01 0.00 0.00 0.00 0.00 0.00 0.00 0.00 0.00 0.00 0.00
0.00 0.00 0.00 0.00 0.00 0.00 0.00 0.00 0.00 0.00 0.00 0.00 0.00 0.00 0.00 0.00 0.00 0.00 0.00 0.00 0.00 0.00 0.00 0.00 0.00 0.00 0.00 0.00 0.00 0.00 0.00 0.00 0.00 0.00 0.00 0.00 0.00 0.00
0.00 0.00 0.00 0.00 0.00 0.00 0.00 0.00 0.00 0.00 0.00 0.00 0.00 0.00 0.00 0.00 0.00 0.00 0.00 0.00 0.00 0.00 0.00 0.00 0.00 0.00 0.00 0.00 0.00 0.00 0.00 0.00 0.00 0.00 0.00 0.00 0.00 0.00
0.00 0.00 0.00 0.00 0.00 0.00 0.00 0.00 0.00 0.00 0.00 0.00 0.00 0.00 0.00 0.00 0.00 0.00 0.00 0.00 0.00 0.00 0.00 0.00 0.00 0.00 0.00 0.00 0.00 0.00 0.00 0.00 0.00 0.00 0.00 0.00 0.00 0.00
0.00 0.00 0.00 0.00 0.00 0.00 0.00 0.00 0.00 0.00 0.00 0.00 0.00 0.00 0.00 0.00 0.00 0.00 0.00 0.00 0.00 0.00 0.00 0.00 0.00 0.00 0.00 0.00 0.00 0.00 0.00 0.00 0.00 0.00 0.00 0.00 0.00 0.00
0.00 0.00 0.00 0.00 0.00 0.00 0.00 0.00 0.00 0.00 0.00 0.00 0.00 0.00 0.00 0.00 0.00 0.00 0.00 0.00 0.00 0.00 0.00 0.00 0.00 0.00 0.00 0.00 0.00 0.00 0.00 0.00 0.00 0.00 0.00 0.00 0.00 0.00
0.00 0.00 0.00 0.00 0.00 0.00 0.00 0.00 0.00 0.00 0.00 0.00 0.00 0.00 0.00 0.00 0.00 0.00 0.00 0.00 0.00 0.00 0.00 0.00 0.00 0.00 0.00 0.00 0.00 0.00 0.00 0.00 0.00 0.00 0.00 0.00 0.00 0.00
0.00 0.00 0.00 0.00 0.00 0.00 0.00 0.00 0.00 0.00 0.00 0.00 0.00 0.00 0.00 0.00 0.00 0.00 0.00 0.00 0.00 0.00 0.00 0.00 0.00 0.00 0.00 0.00 0.00 0.00 0.00 0.00 0.00 0.00 0.00 0.00 0.00 0.00
0.00 0.00 0.00 0.00 0.00 0.00 0.00 0.00 0.00 0.00 0.00 0.00 0.00 0.00 0.00 0.00 0.00 0.00 0.00 0.00 0.00 0.00 0.00 0.00 0.00 0.00 0.00 0.00 0.00 0.00 0.00 0.00 0.00 0.00 0.00 0.00 0.00 0.00
MSLP
1001.81 1001.57 999.91 1001.58 999.13 999.99 999.67 999.33 999.84 1000.98 1003.44 1005.14 1006.24 1006.44 1006.67 1007.71 1008.17 1008.60 1008.78 1007.48 1008.20 1007.78 1009.00 1009.56 1009.30 1009.50 1009.71 1009.39 1009.38 1009.57 1009.65 1009.73 1009.37 1009.28 1009.16 1008.70 1008.60 1008.73
1004.64 1003.65 1003.49 1003.11 1003.54 1000.96 1002.11 1001.69 1001.20 999.04 1001.89 1004.54 1006.15 1006.82 1007.35 1008.29 1008.08 1008.69 1008.79 1008.47 1008.75 1009.74 1009.72 1009.68 1009.27 1009.38 1009.56 1009.34 1009.33 1009.57 1009.63 1009.79 1009.44 1009.30 1008.92 1008.66 1008.23 1008.36
1005.31 1006.10 1005.27 1006.38 1005.12 1003.78 1003.54 1003.28 1002.53 1000.00 1001.72 1005.22 1006.11 1007.53 1007.62 1008.48 1009.00 1008.30 1008.79 1009.40 1010.05 1010.28 1010.22 1010.09 1009.82 1009.71 1009.31 1009.18 1009.19 1009.35 1009.71 1009.79 1009.44 1009.58 1009.01 1008.74 1008.29 1008.13
1008.22 1008.65 1008.54 1007.93 1006.88 1006.19 1005.14 1004.71 1005.16 1004.28 1004.86 1006.48 1007.95 1008.38 1008.81 1008.50 1009.20 1009.11 1009.49 1009.88 1010.27 1010.46 1010.52 1010.57 1010.38 1009.81 1009.57 1009.11 1009.14 1009.37 1009.44 1009.76 1009.67 1009.43 1009.01 1008.77 1008.59 1008.06
1010.90 1010.22 1010.49 1009.73 1009.13 1008.33 1007.89 1007.19 1006.38 1007.98 1007.14 1008.54 1009.43 1010.07 1010.07 1009.98 1009.17 1009.92 1010.62 1010.85 1010.51 1010.60 1010.61 1010.77 1010.51 1010.09 1009.85 1009.29 1009.35 1009.64 1009.57 1009.78 1009.56 1009.04 1009.00 1008.77 1008.44 1008.42
1012.08 1011.83 1011.27 1010.45 1009.96 1009.71 1009.63 1009.51 1009.41 1009.09 1009.04 1009.85 1010.98 1011.20 1011.17 1010.75 1010.74 1011.56 1011.88 1012.06 1011.40 1010.96 1010.91 1010.89 1010.49 1010.09 1009.91 1009.74 1009.66 1009.50 1009.28 1009.35 1009.22 1008.58 1008.72 1008.41 1008.26 1008.43
1014.02 1013.58 1012.92 1012.26 1011.73 1011.62 1011.46 1011.54 1011.44 1011.48 1011.34 1011.51 1011.78 1012.21 1012.22 1011.61 1012.18 1012.77 1012.24 1012.02 1011.60 1011.33 1011.44 1010.98 1010.52 1010.38 1010.10 1009.73 1009.69 1009.20 1009.12 1008.63 1008.66 1008.60 1008.58 1008.36 1007.77 1008.03
1014.91 1014.66 1014.44 1013.81 1013.78 1013.80 1013.29 1013.10 1012.91 1012.87 1011.89 1012.36 1012.93 1012.97 1013.05 1012.71 1012.95 1012.84 1012.60 1012.00 1011.76 1011.32 1011.21 1011.09 1010.89 1010.62 1010.02 1009.68 1009.11 1008.97 1008.64 1008.13 1008.09 1008.28 1008.27 1008.12 1007.73 1007.35
1015.87 1015.69 1015.39 1015.07 1015.26 1015.23 1014.73 1014.24 1013.98 1013.99 1013.54 1013.58 1013.39 1013.53 1013.32 1013.06 1012.79 1012.80 1012.98 1012.57 1012.53 1011.44 1011.43 1010.95 1010.29 1009.69 1009.52 1009.17 1008.73 1008.55 1008.29 1007.85 1007.84 1007.85 1007.63 1007.51 1007.32 1006.91
1016.80 1016.53 1016.20 1015.76 1015.73 1015.61 1014.91 1014.26 1014.10 1014.25 1014.00 1013.77 1013.85 1014.07 1013.72 1013.50 1013.65 1013.81 1013.84 1013.30 1012.40 1011.22 1011.23 1011.17 1010.29 1010.13 1009.64 1009.07 1008.17 1007.87 1007.94 1007.93 1007.88 1007.43 1007.18 1007.25 1007.07 1006.74
1017.62 1017.51 1017.08 1016.54 1016.43 1015.84 1015.10 1014.63 1014.77 1014.74 1014.45 1014.12 1014.12 1013.77 1013.65 1013.85 1013.86 1013.96 1013.71 1013.14 1012.84 1012.18 1011.84 1011.45 1010.80 1010.32 1009.46 1008.56 1008.00 1007.88 1007.94 1007.88 1007.53 1007.28 1006.92 1006.61 1006.49 1006.15
1018.40 1018.14 1017.69 1017.19 1016.90 1016.39 1015.98 1015.76 1015.44 1015.62 1015.05 1014.65 1014.23 1014.31 1014.12 1014.12 1014.02 1013.90 1014.10 1013.49 1013.36 1012.51 1011.83 1011.67 1010.72 1010.36 1009.69 1008.53 1008.28 1007.83 1007.68 1007.38 1007.16 1006.90 1006.44 1006.14 1005.76 1005.57
1019.47 1019.33 1019.08 1018.28 1017.82 1017.29 1017.11 1016.96 1016.66 1016.36 1015.96 1015.47 1015.20 1015.12 1014.81 1014.51 1014.31 1014.49 1014.26 1013.64 1013.21 1012.57 1011.79 1012.05 1010.95 1010.82 1010.41 1009.44 1008.18 1007.60 1007.33 1006.90 1006.68 1006.49 1006.27 1005.86 1005.37 1005.04
1020.47 1020.31 1020.18 1019.55 1019.27 1018.75 1018.29 1017.88 1017.47 1017.11 1016.68 1016.25 1016.11 1015.79 1014.96 1014.65 1014.44 1013.86 1013.55 1013.21 1012.83 1012.33 1011.50 1011.60 1011.12 1010.75 1010.00 1009.06 1008.23 1007.28 1006.56 1006.15 1005.92 1005.68 1005.47 1005.11 1004.85 1004.36
1021.52 1021.35 1020.92 1020.20 1019.74 1019.25 1018.61 1018.32 1017.95 1017.49 1017.29 1016.99 1016.86 1016.51 1015.89 1015.19 1014.42 1013.95 1013.45 1012.74 1012.45 1011.89 1011.27 1010.76 1010.57 1010.10 1009.74 1008.93 1008.00 1007.03 1006.47 1005.60 1004.96 1004.80 1004.58 1004.34 1004.20 1004.02
1022.09 1021.85 1021.50 1021.16 1020.77 1020.23 1019.75 1019.23 1018.85 1018.56 1018.36 1018.09 1017.41 1016.40 1015.53 1014.67 1014.02 1013.65 1012.92 1012.21 1011.60 1010.91 1010.73 1010.21 1009.94 1009.71 1009.05 1008.48 1007.75 1006.64 1006.10 1005.31 1004.29 1003.94 1003.65 1003.29 1003.19 1003.13
1023.04 1022.57 1022.10 1021.57 1021.14 1020.76 1020.25 1019.79 1019.33 1018.95 1018.44 1017.99 1017.22 1016.54 1015.79 1015.13 1014.62 1014.04 1013.39 1012.69 1012.23 1011.12 1010.29 1009.85 1009.56 1009.18 1008.52 1007.77 1006.70 1005.79 1004.96 1004.28 1003.77 1003.13 1003.09 1002.67 1002.22 1002.02
1023.54 1023.15 1022.87 1022.53 1022.03 1021.51 1020.99 1020.49 1020.09 1019.64 1019.18 1018.55 1017.87 1017.20 1016.46 1015.79 1015.04 1014.29 1013.69 1013.17 1012.46 1011.43 1010.55 1009.74 1009.04 1008.37 1007.14 1005.71 1005.07 1004.54 1004.23 1003.53 1002.81 1002.25 1002.10 1001.97 1001.29 1000.90
1024.42 1024.25 1023.94 1023.43 1022.90 1022.36 1021.69 1021.08 1020.44 1019.95 1019.46 1018.80 1018.20 1017.62 1016.93 1016.03 1015.30 1014.51 1013.80 1013.14 1012.25 1011.49 1010.58 1009.84 1008.96 1008.36 1007.42 1006.06 1004.31 1003.50 1003.42 1002.80 1002.16 1001.71 1001.35 1001.12 1000.53 1000.03
1025.07 1024.83 1024.43 1023.93 1023.30 1022.64 1022.01 1021.39 1020.67 1020.02 1019.48 1018.85 1018.17 1017.48 1016.81 1016.12 1015.14 1014.47 1013.94 1013.18 1012.35 1011.12 1009.79 1008.98 1008.25 1007.63 1007.02 1005.95 1004.72 1002.93 1002.51 1002.22 1001.65 1000.88 1000.27 1000.05 999.71 999.42
1026.35 1025.75 1025.15 1024.48 1023.82 1023.10 1022.36 1021.67 1020.99 1020.14 1019.31 1018.56 1017.84 1017.19 1016.56 1015.92 1015.02 1014.33 1013.58 1012.86 1012.06 1011.01 1009.67 1008.21 1007.22 1006.88 1006.20 1005.42 1004.12 1002.39 1000.91 1000.40 1000.25 999.85 999.44 999.24 999.16 999.06
1027.25 1026.54 1025.73 1025.02 1024.21 1023.37 1022.53 1021.63 1020.67 1019.83 1019.06 1018.46 1017.71 1017.03 1016.30 1015.64 1014.81 1013.86 1013.03 1012.18 1011.26 1010.38 1009.10 1007.65 1006.44 1005.75 1004.98 1004.18 1002.68 1001.33 999.80 999.07 998.84 998.71 998.61 998.67 998.70 998.51
1028.02 1027.17 1026.27 1025.43 1024.55 1023.73 1022.81 1021.78 1020.84 1020.09 1019.30 1018.40 1017.49 1016.64 1015.84 1014.93 1014.16 1013.28 1012.36 1011.47 1010.48 1009.31 1008.29 1006.78 1005.57 1004.69 1003.54 1002.56 1001.37 1000.16 999.26 998.65 998.48 998.38 998.07 997.86 997.84 997.83
Thickness
5595 5596 5599 5604 5633 5631 5639 5653 5655 5643 5622 5609 5606 5606 5605 5598 5597 5592 5594 5606 5603 5610 5608 5605 5612 5612 5610 5616 5620 5619 5618 5617 5620 5621 5622 5628 5631 5629
5555 5562 5562 5570 5571 5595 5599 5605 5614 5642 5621 5599 5589 5589 5587 5580 5583 5577 5579 5586 5587 5585 5590 5593 5602 5603 5603 5608 5609 5608 5608 5607 5611 5612 5617 5620 5626 5624
5538 5529 5539 5531 5543 5559 5569 5575 5588 5602 5594 5575 5575 5567 5568 5565 5564 5567 5566 5562 5564 5568 5573 5580 5586 5587 5594 5596 5597 5598 5596 5596 5600 5600 5607 5610 5615 5617
5498 5497 5498 5507 5517 5525 5542 5551 5552 5559 5559 5548 5540 5544 5545 5551 5548 5550 5551 5552 5550 5552 5558 5561 5566 5572 5576 5581 5584 5584 5585 5585 5587 5591 5597 5600 5602 5607
5469 5476 5475 5483 5489 5501 5509 5517 5527 5517 5527 5519 5516 5516 5519 5525 5533 5531 5532 5532 5538 5539 5540 5541 5545 5552 5558 5566 5566 5565 5568 5569 5574 5581 5585 5588 5592 5592
5454 5456 5461 5469 5475 5481 5484 5489 5494 5496 5504 5500 5495 5496 5500 5506 5508 5507 5506 5506 5512 5518 5522 5525 5531 5536 5543 5548 5549 5550 5556 5557 5562 5571 5572 5577 5580 5579
5430 5435 5440 5446 5452 5455 5460 5463 5467 5467 5473 5474 5474 5473 5477 5484 5483 5482 5488 5491 5495 5499 5501 5507 5514 5517 5523 5530 5531 5539 5541 5548 5551 5555 5557 5561 5569 5569
5412 5416 5418 5425 5428 5430 5436 5441 5444 5445 5456 5454 5451 5455 5458 5463 5463 5468 5472 5476 5479 5484 5487 5491 5494 5497 5504 5510 5518 5522 5529 5536 5538 5539 5542 5545 5552 5559
5396 5400 5403 5407 5407 5408 5415 5420 5423 5423 5430 5433 5438 5439 5443 5447 5451 5451 5451 5456 5459 5468 5469 5474 5480 5489 5493 5497 5503 5507 5512 5518 5521 5523 5528 5533 5538 5547
5383 5385 5389 5394 5396 5398 5405 5411 5413 5412 5415 5420 5421 5422 5425 5427 5427 5428 5429 5435 5444 5452 5455 5457 5465 5468 5474 5480 5488 5492 5494 5497 5500 5507 5514 5517 5522 5529
5371 5372 5377 5383 5384 5389 5395 5399 5399 5400 5403 5407 5407 5410 5412 5411 5412 5412 5414 5422 5424 5425 5431 5439 5441 5448 5456 5464 5469 5471 5473 5476 5482 5488 5495 5502 5507 5514
5359 5360 5365 5370 5370 5375 5379 5382 5385 5383 5387 5391 5395 5394 5395 5396 5398 5399 5397 5402 5405 5408 5414 5420 5426 5431 5440 5442 5447 5451 5454 5458 5463 5468 5476 5484 5492 5499
5344 5344 5345 5352 5355 5359 5360 5360 5363 5364 5367 5370 5372 5372 5374 5377 5378 5376 5378 5383 5386 5389 5393 5395 5402 5403 5409 5419 5428 5430 5433 5438 5443 5448 5453 5461 5470 5480
5329 5330 5329 5333 5334 5337 5340 5342 5343 5345 5346 5348 5348 5349 5354 5356 5357 5360 5362 5363 5365 5367 5371 5373 5379 5380 5387 5396 5401 5405 5411 5416 5420 5425 5431 5439 5447 5458
5313 5313 5314 5319 5320 5322 5326 5326 5326 5328 5328 5327 5325 5327 5329 5332 5336 5338 5339 5342 5341 5344 5346 5351 5355 5358 5359 5366 5375 5379 5382 5388 5394 5397 5402 5411 5419 5428
5301 5300 5300 5299 5299 5301 5301 5303 5303 5302 5300 5299 5302 5307 5311 5316 5319 5318 5319 5322 5322 5323 5322 5326 5328 5329 5330 5332 5339 5347 5345 5359 5359 5364 5370 5379 5386 5396
5282 5282 5281 5281 5281 5280 5280 5281 5280 5279 5279 5278 5280 5281 5284 5285 5286 5287 5287 5288 5288 5289 5289 5293 5294 5294 5297 5299 5304 5306 5311 5315 5316 5321 5324 5337 5347 5356
5267 5264 5261 5258 5257 5256 5254 5253 5251 5250 5249 5249 5249 5250 5251 5252 5253 5255 5255 5255 5255 5259 5261 5263 5264 5265 5270 5277 5280 5282 5279 5284 5286 5287 5287 5293 5305 5311
5247 5242 5238 5236 5234 5232 5231 5229 5227 5225 5223 5223 5223 5223 5224 5228 5230 5232 5235 5237 5240 5242 5246 5248 5250 5251 5253 5257 5266 5269 5272 5270 5271 5271 5270 5271 5279 5283
5225 5220 5216 5213 5211 5209 5208 5207 5208 5209 5209 5210 5212 5215 5216 5219 5223 5225 5227 5229 5232 5237 5244 5247 5249 5249 5249 5253 5258 5264 5265 5264 5262 5264 5267 5266 5267 5269
5201 5197 5195 5194 5194 5195 5197 5199 5201 5204 5208 5211 5213 5215 5216 5218 5221 5223 5226 5228 5231 5236 5242 5249 5252 5250 5251 5252 5257 5266 5273 5272 5269 5268 5267 5265 5264 5262
5185 5184 5186 5188 5190 5193 5196 5200 5204 5208 5211 5212 5214 5215 5217 5218 5221 5225 5229 5232 5235 5239 5244 5251 5256 5257 5257 5260 5267 5274 5283 5281 5276 5272 5269 5265 5262 5257
5177 5181 5185 5187 5190 5193 5196 5200 5203 5205 5207 5211 5215 5217 5220 5223 5226 5230 5233 5236 5240 5245 5249 5256 5261 5264 5269 5271 5276 5282 5285 5284 5276 5270 5269 5268 5265 5263